When you browse on this site, cookies collect data to enhance your experience and personalize the content and advertising you see.
Visit our Privacy Policy to learn more. By continuing to use the site, you agree to this use of cookies and data.
  • In United Kingdom
  • List of Countries
  • For 7 days
  • Water Temperature
  • Satellite Maps
  • Weather Map
  • Weather Widgets
  • user-avatar
    Login

    Hourly Weather Sydney

    Today, 24 April, Wednesday

    Time Temperature Precipitation Wind Pressure Humidity
    00:00 +20°C° 0.3 mm 2 mps 768 mmHg 87%
    01:00 +20°C° 0.3 mm 2 mps 768 mmHg 88%
    02:00 +20°C° 0 mm 2 mps 768 mmHg 89%
    03:00 +20°C° 0 mm 1 mps 768 mmHg 90%
    04:00 +20°C° 0 mm 1 mps 767 mmHg 90%
    05:00 +20°C° 0 mm 1 mps 767 mmHg 91%
    06:00 +20°C° 0 mm 1 mps 767 mmHg 92%
    07:00 +19°C° 0 mm 2 mps 768 mmHg 93%
    08:00 +21°C° 0 mm 1 mps 767 mmHg 84%
    09:00 +23°C° 0 mm 1 mps 767 mmHg 76%
    10:00 +26°C° 0 mm 1 mps 768 mmHg 64%
    11:00 +26°C° 0 mm 1 mps 767 mmHg 58%
    12:00 +27°C° 0 mm 2 mps 767 mmHg 53%
    13:00 +28°C° 0 mm 2 mps 766 mmHg 47%
    14:00 +27°C° 0 mm 3 mps 766 mmHg 50%
    15:00 +27°C° 0 mm 3 mps 765 mmHg 53%
    16:00 +26°C° 0 mm 4 mps 765 mmHg 56%
    17:00 +25°C° 0 mm 4 mps 765 mmHg 61%
    18:00 +23°C° 0 mm 4 mps 765 mmHg 66%
    19:00 +22°C° 0 mm 4 mps 766 mmHg 71%
    20:00 +22°C° 0 mm 4 mps 766 mmHg 73%
    21:00 +21°C° 0 mm 4 mps 766 mmHg 75%
    22:00 +21°C° 0 mm 4 mps 765 mmHg 77%
    23:00 +20°C° 0 mm 3 mps 765 mmHg 78%

    Tomorrow, 25 April, Thursday

    Time Temperature Precipitation Wind Pressure Humidity
    00:00 +20°C° 0 mm 3 mps 765 mmHg 80%
    01:00 +19°C° 0 mm 3 mps 765 mmHg 81%
    02:00 +19°C° 0 mm 2 mps 765 mmHg 82%
    03:00 +19°C° 0 mm 2 mps 764 mmHg 83%
    04:00 +18°C° 0 mm 2 mps 764 mmHg 84%
    05:00 +18°C° 0 mm 2 mps 764 mmHg 83%
    06:00 +18°C° 0 mm 2 mps 764 mmHg 81%
    07:00 +18°C° 0 mm 2 mps 764 mmHg 80%
    08:00 +21°C° 0 mm 2 mps 765 mmHg 70%
    09:00 +24°C° 0 mm 2 mps 765 mmHg 60%
    10:00 +26°C° 0 mm 2 mps 765 mmHg 50%
    11:00 +27°C° 0 mm 2 mps 764 mmHg 49%
    12:00 +27°C° 0 mm 2 mps 764 mmHg 47%
    13:00 +28°C° 0 mm 3 mps 763 mmHg 46%
    14:00 +28°C° 0 mm 3 mps 763 mmHg 51%
    15:00 +27°C° 0 mm 3 mps 762 mmHg 56%
    16:00 +26°C° 0 mm 3 mps 762 mmHg 61%
    17:00 +25°C° 0.1 mm 3 mps 762 mmHg 68%
    18:00 +24°C° 0.1 mm 3 mps 762 mmHg 75%
    19:00 +21°C° 0.1 mm 2 mps 763 mmHg 82%
    20:00 +21°C° 0.1 mm 2 mps 763 mmHg 83%
    21:00 +21°C° 0.1 mm 2 mps 763 mmHg 83%
    22:00 +20°C° 0.1 mm 2 mps 763 mmHg 84%
    23:00 +20°C° 0 mm 2 mps 762 mmHg 83%

    Day after tomorrow, 26 April, Friday

    Time Temperature Precipitation Wind Pressure Humidity
    00:00 +20°C° 0 mm 2 mps 762 mmHg 83%
    01:00 +19°C° 0 mm 2 mps 762 mmHg 82%
    02:00 +19°C° 0 mm 2 mps 761 mmHg 81%
    03:00 +19°C° 0 mm 2 mps 761 mmHg 79%
    04:00 +19°C° 0 mm 2 mps 760 mmHg 77%
    05:00 +19°C° 0 mm 3 mps 761 mmHg 75%
    06:00 +19°C° 0 mm 3 mps 761 mmHg 73%
    07:00 +19°C° 0 mm 3 mps 761 mmHg 71%
    08:00 +21°C° 0 mm 3 mps 761 mmHg 62%
    09:00 +23°C° 0 mm 4 mps 761 mmHg 53%
    10:00 +26°C° 0 mm 4 mps 761 mmHg 43%
    11:00 +27°C° 0 mm 4 mps 760 mmHg 39%
    12:00 +28°C° 0 mm 5 mps 759 mmHg 34%
    13:00 +30°C° 0 mm 5 mps 758 mmHg 29%
    14:00 +29°C° 0 mm 5 mps 758 mmHg 28%
    15:00 +28°C° 0 mm 5 mps 758 mmHg 28%
    16:00 +28°C° 0 mm 5 mps 758 mmHg 27%
    17:00 +26°C° 0 mm 6 mps 759 mmHg 32%
    18:00 +23°C° 0 mm 7 mps 759 mmHg 36%
    19:00 +21°C° 0 mm 8 mps 760 mmHg 41%
    20:00 +20°C° 0 mm 8 mps 761 mmHg 44%
    21:00 +18°C° 0 mm 8 mps 762 mmHg 47%
    22:00 +17°C° 0 mm 8 mps 763 mmHg 50%
    23:00 +16°C° 0 mm 7 mps 763 mmHg 49%

    27 April, Saturday

    Time Temperature Precipitation Wind Pressure Humidity
    00:00 +15°C° 0 mm 7 mps 764 mmHg 49%
    01:00 +14°C° 0 mm 6 mps 764 mmHg 48%
    02:00 +14°C° 0 mm 6 mps 764 mmHg 49%
    03:00 +13°C° 0 mm 6 mps 764 mmHg 49%
    04:00 +13°C° 0 mm 6 mps 764 mmHg 50%
    05:00 +13°C° 0 mm 6 mps 765 mmHg 50%
    06:00 +11°C° 0 mm 6 mps 766 mmHg 51%
    07:00 +12°C° 0 mm 5 mps 766 mmHg 51%
    08:00 +13°C° 0 mm 5 mps 767 mmHg 46%
    09:00 +15°C° 0 mm 5 mps 767 mmHg 41%
    10:00 +17°C° 0 mm 4 mps 767 mmHg 37%
    11:00 +18°C° 0 mm 4 mps 766 mmHg 34%
    12:00 +19°C° 0 mm 3 mps 766 mmHg 31%
    13:00 +20°C° 0 mm 3 mps 765 mmHg 28%
    14:00 +19°C° 0 mm 3 mps 765 mmHg 29%
    15:00 +19°C° 0 mm 3 mps 765 mmHg 30%
    16:00 +19°C° 0 mm 2 mps 765 mmHg 31%
    17:00 +18°C° 0 mm 2 mps 765 mmHg 36%
    18:00 +17°C° 0 mm 2 mps 766 mmHg 41%
    19:00 +16°C° 0 mm 2 mps 766 mmHg 46%
    20:00 +15°C° 0 mm 2 mps 766 mmHg 48%
    21:00 +15°C° 0 mm 2 mps 767 mmHg 50%
    22:00 +15°C° 0 mm 2 mps 767 mmHg 52%
    23:00 +14°C° 0 mm 2 mps 766 mmHg 53%

    28 April, Sunday

    Time Temperature Precipitation Wind Pressure Humidity
    00:00 +13°C° 0 mm 3 mps 766 mmHg 54%
    01:00 +12°C° 0 mm 3 mps 766 mmHg 55%
    02:00 +12°C° 0 mm 3 mps 765 mmHg 54%
    03:00 +11°C° 0 mm 3 mps 765 mmHg 54%
    04:00 +11°C° 0 mm 3 mps 765 mmHg 53%
    05:00 +11°C° 0 mm 3 mps 765 mmHg 55%
    06:00 +11°C° 0 mm 3 mps 765 mmHg 57%
    07:00 +10°C° 0 mm 3 mps 765 mmHg 59%
    08:00 +12°C° 0 mm 3 mps 765 mmHg 53%
    09:00 +16°C° 0 mm 3 mps 765 mmHg 48%
    10:00 +18°C° 0 mm 3 mps 765 mmHg 43%
    11:00 +19°C° 0 mm 3 mps 765 mmHg 39%
    12:00 +21°C° 0 mm 3 mps 764 mmHg 35%
    13:00 +24°C° 0 mm 3 mps 764 mmHg 31%
    14:00 +22°C° 0 mm 3 mps 764 mmHg 34%
    15:00 +22°C° 0 mm 3 mps 764 mmHg 37%
    16:00 +21°C° 0 mm 3 mps 764 mmHg 40%
    17:00 +20°C° 0 mm 3 mps 764 mmHg 47%
    18:00 +19°C° 0 mm 2 mps 765 mmHg 54%
    19:00 +18°C° 0 mm 2 mps 766 mmHg 61%
    20:00 +17°C° 0 mm 2 mps 766 mmHg 63%
    21:00 +18°C° 0 mm 1 mps 766 mmHg 65%
    22:00 +16°C° 0 mm 1 mps 767 mmHg 66%
    23:00 +16°C° 0 mm 1 mps 767 mmHg 67%

    29 April, Monday

    Time Temperature Precipitation Wind Pressure Humidity
    00:00 +15°C° 0 mm 2 mps 766 mmHg 68%
    01:00 +15°C° 0 mm 2 mps 766 mmHg 69%
    02:00 +14°C° 0 mm 2 mps 766 mmHg 68%
    03:00 +14°C° 0 mm 2 mps 766 mmHg 67%
    04:00 +13°C° 0 mm 3 mps 766 mmHg 66%
    05:00 +13°C° 0 mm 2 mps 767 mmHg 65%
    06:00 +13°C° 0 mm 2 mps 767 mmHg 65%
    07:00 +13°C° 0 mm 2 mps 768 mmHg 64%
    08:00 +15°C° 0 mm 2 mps 768 mmHg 59%
    09:00 +18°C° 0 mm 2 mps 768 mmHg 55%
    10:00 +20°C° 0 mm 2 mps 768 mmHg 50%
    11:00 +21°C° 0 mm 3 mps 767 mmHg 51%
    12:00 +22°C° 0 mm 3 mps 767 mmHg 51%
    13:00 +22°C° 0 mm 3 mps 766 mmHg 52%
    14:00 +22°C° 0 mm 4 mps 767 mmHg 55%
    15:00 +21°C° 0 mm 4 mps 767 mmHg 59%
    16:00 +21°C° 0 mm 4 mps 767 mmHg 62%
    17:00 +20°C° 0 mm 4 mps 767 mmHg 66%
    18:00 +19°C° 0 mm 3 mps 767 mmHg 70%
    19:00 +18°C° 0 mm 3 mps 768 mmHg 73%
    20:00 +18°C° 0 mm 2 mps 768 mmHg 75%
    21:00 +18°C° 0 mm 2 mps 768 mmHg 76%
    22:00 +18°C° 0 mm 1 mps 768 mmHg 77%
    23:00 +18°C° 0 mm 1 mps 768 mmHg 77%
    Show more